User: anonymous   Login
Location: Unspecified
(0.0000°N, 0.0000°E)
Time: 21:24:40
(UTC+00:00)
Language:

USA 176 - Orbit

View from above orbital plane
View from above orbital plane
View from above satellite
View from above satellite

Ground track
Ground track

The orbit data is extracted from the following two-line orbital elements,

1 28158U 04004A   16094.41980507 0.00000000  00000-0  00000-0 0    09
2 28158   7.0633  49.0076 0003406 290.8365  69.1080  1.00270000    01
Epoch (UTC): 03 April 2016 10:04:31
Eccentricity: 0.0003406
inclination: 7.0633°
perigee height: 35772 km
apogee height: 35801 km
right ascension of ascending node: 49.0076°
argument of perigee: 290.8365°
revolutions per day: 1.00270000
mean anomaly at epoch: 69.1080°
orbit number at epoch: 0

The dashed part of the orbit path shows where the satellite is in the earth's shadow,  

DLR